466  
ASUS44 KMOB 201213  
RWRMOB  
REGIONAL WEATHER ROUNDUP  
NATIONAL WEATHER SERVICE MOBILE AL  
600 AM CST THU FEB 20 2020  
 
NOTE: "FAIR" INDICATES FEW OR NO CLOUDS BELOW 12,000 FEET WITH NO  
SIGNIFICANT WEATHER AND/OR S TO VISIBILITY
.  
 
* THESE STATIONS ARE PART OF THE UNIVERSITY OF SOUTH ALABAMA  
MESONET AND ARE NOT UNDER NWS OR FAA QUALITY CONTROL.
 
 
ALZ061>064-201300-  
COASTAL ALABAMA  
 
CITY SKY/WX TMP DP RH WIND PRES REMARKS
 
MOBILE REG APT LGT RAIN 56 56 100 CALM 30.09F FOG  
6HR MIN TEMP: 54; 6HR MAX TEMP: 56; 6HR PCP: TRACE;  
 
BROOKLEY FIELD CLOUDY 60 58 92 CALM 30.09S FOG  
6HR MIN TEMP: 58; 6HR MAX TEMP: 60;  
 
USA CAMPUS* N/A 57 57 100 CALM N/A  
DOG RIVER* N/A 57 57 100 CALM 30.11S  
 
 
CITY SKY/WX TMP DP RH WIND PRES REMARKS
 
GULF SHORES CLOUDY 60 59 96 E5 30.08F  
 

 
 
ALZ051>060-201300-  
INTERIOR SOUTHWEST AND SOUTH CENTRAL ALABAMA  
 
CITY SKY/WX TMP DP RH WIND PRES REMARKS
 
GREENVILLE RAIN 56 53 90 NE7 30.10S FOG  
6HR MIN TEMP: 55; 6HR MAX TEMP: 56; 6HR PCP: 0.11;  
 
EVERGREEN CLOUDY 59 55 87 NE3 30.10S  
6HR MIN TEMP: 57; 6HR MAX TEMP: 59;  
 
ATMORE* N/A N/A N/A N/A NE2 30.10S  
ANDALUSIA/OPP CLOUDY 63 58 83 E6 30.08F  
6HR MIN TEMP: 61; 6HR MAX TEMP: 63;  
 
ANDALUSIA* N/A N/A N/A N/A SE9 30.08F  
FLORALA APT CLOUDY 61 57 87 E7 30.11F  
6HR MIN TEMP: 60; 6HR MAX TEMP: 61;  
 
FLORALA* N/A 61 59 94 NE5 30.09R  
 

 
 
FLZ001>006-201300-  
WESTERN FLORIDA PANHANDLE  
 
CITY SKY/WX TMP DP RH WIND PRES REMARKS
 
PENSACOLA CLOUDY 61 59 93 CALM 30.08F  
6HR MIN TEMP: 61; 6HR MAX TEMP: 62;  
 
NAS PENSACOLA CLOUDY 62 59 90 E6 30.07  
6HR MIN TEMP: 60; 6HR MAX TEMP: 62;  
 
MILTON CLOUDY 60 58 92 E5 30.09S  
6HR MIN TEMP: 59; 6HR MAX TEMP: 60;  
 
WHTNG S FIELD CLOUDY 62 57 83 SE3 30.09S  
6HR MIN TEMP: 61; 6HR MAX TEMP: 62;  
 
 
CITY SKY/WX TMP DP RH WIND PRES REMARKS
 
JAY* N/A 59 59 100 E6 30.09S  
DUKE FIELD FAIR 61 61 100 E5 30.08S  
CRESTVIEW CLOUDY 61 58 90 E5 30.10S  
6HR MIN TEMP: 60; 6HR MAX TEMP: 62;  
 
VALPARAISO CLOUDY 62 62 100 E6 30.07F  
6HR MIN TEMP: 60; 6HR MAX TEMP: 63;  
 
DESTIN MOCLDY 62 60 93 E7 30.08F  
6HR MIN TEMP: 62; 6HR MAX TEMP: 65; 6HR PCP: TRACE;  
 

 
 
MSZ076-079-201300-  
INTERIOR SOUTHEAST MISSISSIPPI  
 
CITY SKY/WX TMP DP RH WIND PRES REMARKS
 
LEAKESVILLE* N/A N/A N/A N/A CALM 30.11  
AGRICOLA* NOT AVBL  
 

 
 
MARINE OBSERVATIONS  
 
STATION/POSITION TIME TEMP WIND PRES WAVE
 
AIR SEA DIR/SP/G HT/PER  
(UTC) (F) (DEG/KT/KT) (MB) (FT/S)  
PETIT BOIS ISLND 1130 59 1018.7R  
KATRINA CUT 1130 56 60/ 9 1018.6F  
CEDAR POINT 1130 58 30/ 9 1018.6S  
E DAUPHIN ISLAND 1200 59 50/ 5/ 5 1018.5F  
MIDDLE BAY LIGHT 1200 59 30/ 2 1018.3  
USCG MOBILE BAY 1130 65 59 1018.8F  
STATE DOCKS 1130 56 58 1018.4F  
FORT MORGAN 1130 60 1018.5F  
12 S ORANGE BCH 1200 63 64 80/ 14/ 16 1018.7  
PENSACOLA BAY 1130 61 1019.1F  
64 S DAUPHIN ISL 1200 71 190/ 10/ 12 1019.2  
 

 
 
SELECTED LOCATIONS ACROSS THE REGION  
 
CITY SKY/WX TMP DP RH WIND PRES REMARKS
 
NEW ORLEANS LGT RAIN 63 60 90 E7 30.06S FOG  
GULFPORT CLOUDY 59 54 83 CALM 30.08R  
PASCAGOULA AP CLOUDY 60 56 86 CALM 30.08S  
PASCAGOULA* N/A 59 57 94 CALM 30.08  
HATTIESBURG HVY RAIN 53 51 93 E3 30.08F FOG  
LAUREL LGT RAIN 51 51 100 N7 30.11R FOG  
MERIDIAN HVY RAIN 50 47 89 N8 30.16R FOG  
JACKSON RAIN 48 46 93 N8 30.17R FOG  
MONTGOMERY RAIN 55 53 93 NE10 30.13F FOG  
TROY LGT RAIN 55 55 100 E12G18 30.11F  
ASHFORD* N/A N/A N/A N/A SE9 30.08F  
DOTHAN CLOUDY 58 56 93 E13 30.12F  
PANAMA CITY MOCLDY 61 59 93 NE3 30.09S  
 

 
 
 
 
CLICK HERE TO GO TO PREVIOUS BULLETINS.

The Nexlab AL Page
The Nexlab FL Page
The Nexlab MS Page Main Text Page